Time,TemperatureF,DewpointF,PressureIn,WindDirection,WindDirectionDegrees,WindSpeedMPH,WindSpeedGustMPH,Humidity,HourlyPrecipIn,Conditions,Clouds,dailyrainin,SoftwareType,DateUTC
2013-07-31 00:00:00,65.5,60.2,29.98,SSW,192,0.0,1.0,83,0.00,,,0.00,VWS V14.01,2013-07-31 04:00:00,
2013-07-31 00:10:00,65.6,60.6,29.98,SSW,192,0.0,1.0,84,0.00,,,0.00,VWS V14.01,2013-07-31 04:10:00,
2013-07-31 00:20:00,65.4,60.5,29.98,SSW,192,0.0,1.0,84,0.00,,,0.00,VWS V14.01,2013-07-31 04:20:00,
2013-07-31 00:30:00,64.8,59.9,29.98,SSW,192,0.0,2.0,84,0.00,,,0.00,VWS V14.01,2013-07-31 04:30:00,
2013-07-31 00:40:00,64.4,59.8,29.98,SSW,192,0.0,2.0,85,0.00,,,0.00,VWS V14.01,2013-07-31 04:40:00,
2013-07-31 00:50:00,64.3,60.0,29.98,SSW,192,0.0,1.0,86,0.00,,,0.00,VWS V14.01,2013-07-31 04:50:00,
2013-07-31 01:00:00,64.4,60.1,29.98,SSW,192,0.0,1.0,86,0.00,,,0.00,VWS V14.01,2013-07-31 05:00:00,
2013-07-31 01:10:00,64.5,59.9,29.98,SSW,192,0.0,1.0,85,0.00,,,0.00,VWS V14.01,2013-07-31 05:10:00,
2013-07-31 01:20:00,64.3,60.0,29.98,SSW,192,1.0,1.0,86,0.00,,,0.00,VWS V14.01,2013-07-31 05:20:00,
2013-07-31 01:30:00,64.0,60.1,29.98,SSW,192,1.0,2.0,87,0.00,,,0.00,VWS V14.01,2013-07-31 05:30:00,
2013-07-31 01:40:00,64.0,60.1,29.98,SSW,192,0.0,2.0,87,0.00,,,0.00,VWS V14.01,2013-07-31 05:40:00,
2013-07-31 01:50:00,64.1,60.2,29.97,SSW,192,0.0,1.0,87,0.00,,,0.00,VWS V14.01,2013-07-31 05:50:00,
2013-07-31 02:00:00,64.2,59.9,29.97,SSW,192,0.0,0.0,86,0.00,,,0.00,VWS V14.01,2013-07-31 06:00:00,
2013-07-31 02:10:00,64.1,59.8,29.97,SSW,192,0.0,1.0,86,0.00,,,0.00,VWS V14.01,2013-07-31 06:10:00,
2013-07-31 02:20:00,64.0,59.7,29.97,SSW,192,0.0,0.0,86,0.00,,,0.00,VWS V14.01,2013-07-31 06:20:00,
2013-07-31 02:30:00,63.7,59.4,29.97,SSW,192,0.0,1.0,86,0.00,,,0.00,VWS V14.01,2013-07-31 06:30:00,
2013-07-31 02:40:00,63.4,59.5,29.97,SSW,192,1.0,1.0,87,0.00,,,0.00,VWS V14.01,2013-07-31 06:40:00,
2013-07-31 02:50:00,63.0,59.4,29.97,SSW,192,0.0,1.0,88,0.00,,,0.00,VWS V14.01,2013-07-31 06:50:00,
2013-07-31 03:00:00,63.0,59.4,29.97,SSW,192,0.0,1.0,88,0.00,,,0.00,VWS V14.01,2013-07-31 07:00:00,
2013-07-31 03:10:00,62.9,59.3,29.97,SSW,192,0.0,0.0,88,0.00,,,0.00,VWS V14.01,2013-07-31 07:10:00,
2013-07-31 03:20:00,62.7,59.1,29.97,SSW,192,0.0,1.0,88,0.00,,,0.00,VWS V14.01,2013-07-31 07:20:00,
2013-07-31 03:30:00,62.5,59.2,29.97,SSW,192,0.0,0.0,89,0.00,,,0.00,VWS V14.01,2013-07-31 07:30:00,
2013-07-31 03:40:00,62.3,59.0,29.97,SSW,192,0.0,1.0,89,0.00,,,0.00,VWS V14.01,2013-07-31 07:40:00,
2013-07-31 03:50:00,62.2,58.9,29.97,SSW,192,0.0,0.0,89,0.00,,,0.00,VWS V14.01,2013-07-31 07:50:00,
2013-07-31 04:00:00,62.2,58.9,29.97,SSW,192,0.0,0.0,89,0.00,,,0.00,VWS V14.01,2013-07-31 08:00:00,
2013-07-31 04:10:00,62.3,59.0,29.97,SSW,192,0.0,0.0,89,0.00,,,0.00,VWS V14.01,2013-07-31 08:10:00,
2013-07-31 04:20:00,62.3,59.3,29.98,SSW,192,0.0,0.0,90,0.00,,,0.00,VWS V14.01,2013-07-31 08:20:00,
2013-07-31 04:30:00,62.2,59.2,29.98,South,188,1.0,1.0,90,0.00,,,0.00,VWS V14.01,2013-07-31 08:30:00,
2013-07-31 04:40:00,62.1,59.5,29.98,South,188,0.0,1.0,91,0.00,,,0.00,VWS V14.01,2013-07-31 08:40:00,
2013-07-31 04:50:00,62.0,59.3,29.98,South,182,0.0,1.0,91,0.00,,,0.00,VWS V14.01,2013-07-31 08:50:00,
2013-07-31 05:00:00,62.0,59.3,29.98,South,182,0.0,1.0,91,0.00,,,0.00,VWS V14.01,2013-07-31 09:00:00,
2013-07-31 05:10:00,62.0,59.0,29.98,South,182,0.0,0.0,90,0.00,,,0.00,VWS V14.01,2013-07-31 09:10:00,
2013-07-31 05:20:00,61.9,59.2,29.99,South,182,0.0,0.0,91,0.00,,,0.00,VWS V14.01,2013-07-31 09:20:00,
2013-07-31 05:30:00,61.8,59.5,29.99,South,182,0.0,1.0,92,0.00,,,0.00,VWS V14.01,2013-07-31 09:30:00,
2013-07-31 05:40:00,61.8,59.8,29.99,South,182,0.0,1.0,93,0.00,,,0.00,VWS V14.01,2013-07-31 09:40:00,
2013-07-31 05:50:00,61.9,59.9,29.99,South,182,0.0,0.0,93,0.00,,,0.00,VWS V14.01,2013-07-31 09:50:00,
2013-07-31 06:00:00,61.9,59.9,30.00,South,182,0.0,0.0,93,0.00,,,0.00,VWS V14.01,2013-07-31 10:00:00,
2013-07-31 06:10:00,61.9,59.9,30.00,South,182,0.0,0.0,93,0.00,,,0.00,VWS V14.01,2013-07-31 10:10:00,
2013-07-31 06:20:00,61.9,59.5,30.00,South,182,0.0,0.0,92,0.00,,,0.00,VWS V14.01,2013-07-31 10:20:00,
2013-07-31 06:30:00,62.0,59.7,30.00,South,182,0.0,0.0,92,0.00,,,0.00,VWS V14.01,2013-07-31 10:30:00,
2013-07-31 06:40:00,62.0,60.0,30.00,South,182,0.0,0.0,93,0.00,,,0.00,VWS V14.01,2013-07-31 10:40:00,
2013-07-31 06:50:00,62.1,60.1,30.01,South,182,0.0,0.0,93,0.00,,,0.00,VWS V14.01,2013-07-31 10:50:00,
2013-07-31 07:00:00,62.3,60.2,30.01,South,182,0.0,0.0,93,0.00,,,0.00,VWS V14.01,2013-07-31 11:00:00,
2013-07-31 07:10:00,62.6,60.8,30.01,South,182,0.0,0.0,94,0.00,,,0.00,VWS V14.01,2013-07-31 11:10:00,
2013-07-31 07:20:00,62.9,60.8,30.01,South,182,0.0,0.0,93,0.00,,,0.00,VWS V14.01,2013-07-31 11:20:00,
2013-07-31 07:30:00,63.2,61.5,30.01,South,182,0.0,0.0,94,0.00,,,0.00,VWS V14.01,2013-07-31 11:30:00,
2013-07-31 07:40:00,63.6,61.8,30.01,South,182,0.0,0.0,94,0.00,,,0.00,VWS V14.01,2013-07-31 11:40:00,
2013-07-31 07:50:00,64.0,62.5,30.01,South,182,0.0,0.0,95,0.00,,,0.00,VWS V14.01,2013-07-31 11:50:00,
2013-07-31 08:00:00,64.6,63.1,30.01,South,182,0.0,0.0,95,0.00,,,0.00,VWS V14.01,2013-07-31 12:00:00,
2013-07-31 08:10:00,65.2,64.0,30.01,South,182,0.0,1.0,96,0.00,,,0.00,VWS V14.01,2013-07-31 12:10:00,
2013-07-31 08:20:00,65.8,64.3,30.01,South,181,0.0,1.0,95,0.00,,,0.00,VWS V14.01,2013-07-31 12:20:00,
2013-07-31 08:30:00,66.6,64.2,30.01,SSW,194,1.0,3.0,92,0.00,,,0.00,VWS V14.01,2013-07-31 12:30:00,
2013-07-31 08:40:00,67.3,64.3,30.01,SSW,194,0.0,2.0,90,0.00,,,0.00,VWS V14.01,2013-07-31 12:40:00,
2013-07-31 08:50:00,68.2,63.9,30.01,SSW,196,0.0,3.0,86,0.00,,,0.00,VWS V14.01,2013-07-31 12:50:00,
2013-07-31 09:00:00,69.2,63.1,30.01,SSW,210,0.0,4.0,81,0.00,,,0.00,VWS V14.01,2013-07-31 13:00:00,
2013-07-31 09:10:00,69.9,63.8,30.01,ENE,65,1.0,2.0,81,0.00,,,0.00,VWS V14.01,2013-07-31 13:10:00,
2013-07-31 09:20:00,70.3,63.1,30.00,SW,229,3.0,4.0,78,0.00,,,0.00,VWS V14.01,2013-07-31 13:20:00,
2013-07-31 09:30:00,71.0,63.8,30.00,SW,223,1.0,3.0,78,0.00,,,0.00,VWS V14.01,2013-07-31 13:30:00,
2013-07-31 09:40:00,71.6,63.6,30.00,SW,223,0.0,3.0,76,0.00,,,0.00,VWS V14.01,2013-07-31 13:40:00,
2013-07-31 09:50:00,72.1,63.4,30.00,SW,223,0.0,3.0,74,0.00,,,0.00,VWS V14.01,2013-07-31 13:50:00,
2013-07-31 10:00:00,72.5,62.6,30.00,SE,127,1.0,2.0,71,0.00,,,0.00,VWS V14.01,2013-07-31 14:00:00,
2013-07-31 10:10:00,73.0,61.4,30.00,SW,231,1.0,3.0,67,0.00,,,0.00,VWS V14.01,2013-07-31 14:10:00,
2013-07-31 10:20:00,73.6,61.5,30.00,SW,221,0.0,3.0,66,0.00,,,0.00,VWS V14.01,2013-07-31 14:20:00,
2013-07-31 10:30:00,74.1,61.2,30.00,SW,222,2.0,3.0,64,0.00,,,0.00,VWS V14.01,2013-07-31 14:30:00,
2013-07-31 10:40:00,74.5,62.4,30.00,SW,236,1.0,5.0,66,0.00,,,0.00,VWS V14.01,2013-07-31 14:40:00,
2013-07-31 10:50:00,75.0,62.9,29.99,South,184,1.0,3.0,66,0.00,,,0.00,VWS V14.01,2013-07-31 14:50:00,
2013-07-31 11:00:00,75.2,61.8,29.99,South,173,1.0,5.0,63,0.00,,,0.00,VWS V14.01,2013-07-31 15:00:00,
2013-07-31 11:10:00,75.3,61.4,29.99,SW,217,0.0,4.0,62,0.00,,,0.00,VWS V14.01,2013-07-31 15:10:00,
2013-07-31 11:20:00,75.9,62.4,29.99,SSW,210,0.0,3.0,63,0.00,,,0.00,VWS V14.01,2013-07-31 15:20:00,
2013-07-31 11:30:00,76.2,61.8,29.99,ESE,123,1.0,5.0,61,0.00,,,0.00,VWS V14.01,2013-07-31 15:30:00,
2013-07-31 11:40:00,76.3,61.9,29.99,SW,236,2.0,5.0,61,0.00,,,0.00,VWS V14.01,2013-07-31 15:40:00,
2013-07-31 11:50:00,76.3,63.2,29.98,WSW,244,3.0,3.0,64,0.00,,,0.00,VWS V14.01,2013-07-31 15:50:00,
2013-07-31 12:00:00,76.5,62.1,29.98,WSW,248,1.0,5.0,61,0.00,,,0.00,VWS V14.01,2013-07-31 16:00:00,
2013-07-31 12:10:00,76.9,63.4,29.98,SSW,212,2.0,2.0,63,0.00,,,0.00,VWS V14.01,2013-07-31 16:10:00,
2013-07-31 12:20:00,77.1,64.0,29.98,SW,219,0.0,3.0,64,0.00,,,0.00,VWS V14.01,2013-07-31 16:20:00,
2013-07-31 12:30:00,77.1,64.4,29.98,SW,219,0.0,2.0,65,0.00,,,0.00,VWS V14.01,2013-07-31 16:30:00,
2013-07-31 12:40:00,77.3,65.1,29.98,WSW,258,0.0,4.0,66,0.00,,,0.00,VWS V14.01,2013-07-31 16:40:00,
2013-07-31 12:50:00,77.0,63.0,29.98,WSW,255,0.0,2.0,62,0.00,,,0.00,VWS V14.01,2013-07-31 16:50:00,
2013-07-31 13:00:00,77.2,65.0,29.97,WSW,241,2.0,4.0,66,0.00,,,0.00,VWS V14.01,2013-07-31 17:00:00,
2013-07-31 13:10:00,77.5,63.9,29.97,West,264,1.0,3.0,63,0.00,,,0.00,VWS V14.01,2013-07-31 17:10:00,
2013-07-31 13:20:00,77.6,64.5,29.97,WNW,298,1.0,5.0,64,0.00,,,0.00,VWS V14.01,2013-07-31 17:20:00,
2013-07-31 13:30:00,77.8,63.3,29.97,WSW,248,1.0,3.0,61,0.00,,,0.00,VWS V14.01,2013-07-31 17:30:00,
2013-07-31 13:40:00,77.6,65.3,29.97,NE,49,1.0,2.0,66,0.00,,,0.00,VWS V14.01,2013-07-31 17:40:00,
2013-07-31 13:50:00,77.8,64.2,29.97,NW,324,0.0,3.0,63,0.00,,,0.00,VWS V14.01,2013-07-31 17:50:00,
2013-07-31 14:00:00,78.2,63.7,29.97,NE,51,1.0,4.0,61,0.00,,,0.00,VWS V14.01,2013-07-31 18:00:00,
2013-07-31 14:10:00,78.3,62.8,29.97,SSW,194,5.0,5.0,59,0.00,,,0.00,VWS V14.01,2013-07-31 18:10:00,
2013-07-31 14:20:00,78.3,62.8,29.97,West,265,2.0,5.0,59,0.00,,,0.00,VWS V14.01,2013-07-31 18:20:00,
2013-07-31 14:30:00,78.5,64.4,29.97,West,267,0.0,4.0,62,0.00,,,0.00,VWS V14.01,2013-07-31 18:30:00,
2013-07-31 14:40:00,78.7,62.7,29.97,SW,236,2.0,4.0,58,0.00,,,0.00,VWS V14.01,2013-07-31 18:40:00,
2013-07-31 14:50:00,79.1,63.6,29.96,WSW,257,1.0,4.0,59,0.00,,,0.00,VWS V14.01,2013-07-31 18:50:00,
2013-07-31 15:00:00,79.1,63.6,29.96,West,266,3.0,5.0,59,0.00,,,0.00,VWS V14.01,2013-07-31 19:00:00,
2013-07-31 15:10:00,78.8,63.3,29.96,West,269,0.0,3.0,59,0.00,,,0.00,VWS V14.01,2013-07-31 19:10:00,
2013-07-31 15:20:00,78.9,62.4,29.95,WSW,250,2.0,3.0,57,0.00,,,0.00,VWS V14.01,2013-07-31 19:20:00,
2013-07-31 15:30:00,79.0,64.4,29.95,West,280,2.0,4.0,61,0.00,,,0.00,VWS V14.01,2013-07-31 19:30:00,
2013-07-31 15:40:00,79.6,64.0,29.95,SSE,148,1.0,4.0,59,0.00,,,0.00,VWS V14.01,2013-07-31 19:40:00,
2013-07-31 15:50:00,79.7,64.6,29.95,East,94,1.0,3.0,60,0.00,,,0.00,VWS V14.01,2013-07-31 19:50:00,
2013-07-31 16:00:00,79.4,63.3,29.95,West,265,1.0,4.0,58,0.00,,,0.00,VWS V14.01,2013-07-31 20:00:00,
2013-07-31 16:10:00,79.9,64.8,29.95,ENE,59,1.0,3.0,60,0.00,,,0.00,VWS V14.01,2013-07-31 20:10:00,
2013-07-31 16:20:00,80.5,65.3,29.95,WSW,249,1.0,6.0,60,0.00,,,0.00,VWS V14.01,2013-07-31 20:20:00,
2013-07-31 16:30:00,80.2,64.6,29.94,WSW,250,2.0,4.0,59,0.00,,,0.00,VWS V14.01,2013-07-31 20:30:00,
2013-07-31 16:40:00,80.1,64.0,29.94,WSW,244,1.0,6.0,58,0.00,,,0.00,VWS V14.01,2013-07-31 20:40:00,
2013-07-31 16:50:00,80.7,65.1,29.94,WSW,241,1.0,2.0,59,0.00,,,0.00,VWS V14.01,2013-07-31 20:50:00,
2013-07-31 17:00:00,80.4,65.3,29.94,WSW,241,0.0,1.0,60,0.00,,,0.00,VWS V14.01,2013-07-31 21:00:00,
2013-07-31 17:10:00,79.7,65.1,29.94,WSW,252,0.0,2.0,61,0.00,,,0.00,VWS V14.01,2013-07-31 21:10:00,
2013-07-31 17:20:00,79.5,66.3,29.94,West,267,2.0,2.0,64,0.00,,,0.00,VWS V14.01,2013-07-31 21:20:00,
2013-07-31 17:30:00,79.4,66.2,29.93,North,9,1.0,2.0,64,0.00,,,0.00,VWS V14.01,2013-07-31 21:30:00,
2013-07-31 17:40:00,79.0,65.3,29.93,North,360,0.0,1.0,63,0.00,,,0.00,VWS V14.01,2013-07-31 21:40:00,
2013-07-31 17:50:00,78.4,65.2,29.93,WNW,302,0.0,1.0,64,0.00,,,0.00,VWS V14.01,2013-07-31 21:50:00,
2013-07-31 18:00:00,77.8,65.5,29.93,West,281,0.0,1.0,66,0.00,,,0.00,VWS V14.01,2013-07-31 22:00:00,
2013-07-31 18:10:00,77.4,64.7,29.93,WNW,292,0.0,1.0,65,0.00,,,0.00,VWS V14.01,2013-07-31 22:10:00,
2013-07-31 18:20:00,77.1,66.2,29.93,WNW,292,1.0,1.0,69,0.00,,,0.00,VWS V14.01,2013-07-31 22:20:00,
2013-07-31 18:30:00,76.9,66.0,29.93,WNW,292,0.0,2.0,69,0.00,,,0.00,VWS V14.01,2013-07-31 22:30:00,
2013-07-31 18:40:00,76.4,65.9,29.93,WSW,257,0.0,1.0,70,0.00,,,0.00,VWS V14.01,2013-07-31 22:40:00,
2013-07-31 18:50:00,76.2,65.7,29.93,WSW,257,0.0,2.0,70,0.00,,,0.00,VWS V14.01,2013-07-31 22:50:00,
2013-07-31 19:00:00,75.9,65.4,29.93,WSW,257,0.0,1.0,70,0.00,,,0.00,VWS V14.01,2013-07-31 23:00:00,
2013-07-31 19:10:00,75.6,65.1,29.93,WSW,257,0.0,1.0,70,0.00,,,0.00,VWS V14.01,2013-07-31 23:10:00,
2013-07-31 19:20:00,75.1,65.1,29.92,WSW,257,0.0,1.0,71,0.00,,,0.00,VWS V14.01,2013-07-31 23:20:00,
2013-07-31 19:30:00,74.6,64.6,29.92,WSW,257,0.0,1.0,71,0.00,,,0.00,VWS V14.01,2013-07-31 23:30:00,
2013-07-31 19:40:00,74.1,64.5,29.92,WSW,257,0.0,1.0,72,0.00,,,0.00,VWS V14.01,2013-07-31 23:40:00,
2013-07-31 19:50:00,73.6,64.8,29.92,WSW,257,0.0,0.0,74,0.00,,,0.00,VWS V14.01,2013-07-31 23:50:00,
2013-07-31 20:00:00,72.9,64.5,29.92,WSW,257,0.0,0.0,75,0.00,,,0.00,VWS V14.01,2013-08-01 00:00:00,
2013-07-31 20:10:00,72.1,64.1,29.92,WSW,257,0.0,0.0,76,0.00,,,0.00,VWS V14.01,2013-08-01 00:10:00,
2013-07-31 20:20:00,71.6,64.4,29.92,WSW,257,0.0,0.0,78,0.00,,,0.00,VWS V14.01,2013-08-01 00:20:00,
2013-07-31 20:30:00,71.2,64.4,29.92,WSW,257,0.0,0.0,79,0.00,,,0.00,VWS V14.01,2013-08-01 00:30:00,
2013-07-31 20:40:00,70.8,64.3,29.92,WSW,257,0.0,0.0,80,0.00,,,0.00,VWS V14.01,2013-08-01 00:40:00,
2013-07-31 20:50:00,70.5,64.4,29.92,WSW,257,0.0,0.0,81,0.00,,,0.00,VWS V14.01,2013-08-01 00:50:00,
2013-07-31 21:00:00,70.2,64.1,29.92,WSW,257,0.0,0.0,81,0.00,,,0.00,VWS V14.01,2013-08-01 01:00:00,
2013-07-31 21:10:00,69.9,64.2,29.92,WSW,257,0.0,0.0,82,0.00,,,0.00,VWS V14.01,2013-08-01 01:10:00,
2013-07-31 21:20:00,69.7,64.3,29.92,WSW,257,0.0,0.0,83,0.00,,,0.00,VWS V14.01,2013-08-01 01:20:00,
2013-07-31 21:30:00,69.4,64.4,29.92,WSW,257,0.0,0.0,84,0.00,,,0.00,VWS V14.01,2013-08-01 01:30:00,
2013-07-31 21:40:00,69.2,64.2,29.92,WSW,257,0.0,0.0,84,0.00,,,0.00,VWS V14.01,2013-08-01 01:40:00,
2013-07-31 21:50:00,69.0,64.3,29.92,WSW,257,0.0,0.0,85,0.00,,,0.00,VWS V14.01,2013-08-01 01:50:00,
2013-07-31 22:00:00,68.9,64.2,29.92,WSW,257,0.0,0.0,85,0.00,,,0.00,VWS V14.01,2013-08-01 02:00:00,
2013-07-31 22:10:00,68.7,64.3,29.92,WSW,257,0.0,0.0,86,0.00,,,0.00,VWS V14.01,2013-08-01 02:10:00,
2013-07-31 22:20:00,68.6,64.2,29.92,WSW,257,0.0,0.0,86,0.00,,,0.00,VWS V14.01,2013-08-01 02:20:00,
2013-07-31 22:30:00,68.4,64.4,29.92,WSW,257,0.0,0.0,87,0.00,,,0.00,VWS V14.01,2013-08-01 02:30:00,
2013-07-31 22:40:00,68.3,64.3,29.92,WSW,257,0.0,0.0,87,0.00,,,0.00,VWS V14.01,2013-08-01 02:40:00,
2013-07-31 22:50:00,68.3,64.3,29.92,WSW,257,0.0,0.0,87,0.00,,,0.00,VWS V14.01,2013-08-01 02:50:00,
2013-07-31 23:00:00,68.1,64.4,29.92,WSW,257,0.0,0.0,88,0.00,,,0.00,VWS V14.01,2013-08-01 03:00:00,
2013-07-31 23:10:00,68.1,64.4,29.92,WSW,257,0.0,0.0,88,0.00,,,0.00,VWS V14.01,2013-08-01 03:10:00,
2013-07-31 23:20:00,68.0,64.3,29.92,WSW,257,0.0,0.0,88,0.00,,,0.00,VWS V14.01,2013-08-01 03:20:00,
2013-07-31 23:30:00,67.9,64.2,29.92,WSW,257,0.0,0.0,88,0.00,,,0.00,VWS V14.01,2013-08-01 03:30:00,
2013-07-31 23:40:00,67.9,64.2,29.92,WSW,257,0.0,0.0,88,0.00,,,0.00,VWS V14.01,2013-08-01 03:40:00,
2013-07-31 23:50:00,67.8,64.1,29.92,WSW,257,0.0,1.0,88,0.00,,,0.00,VWS V14.01,2013-08-01 03:50:00,